STARLINK-11258, 62598

Orbit data source: Space-Track

STARLINK-11258, 62598 is a payload satellite owned by SpaceX/Seattle (US) in LEO that was launched on Mon, 13 Jan 2025 UTC via an FALCON 9 launch vehicle from the Air Force Eastern Test Range (AFETR). Payload-class satellites include a variety of spacecraft equipped with specific instruments for various scientific and technological missions. These include communications satellites like Starlink; space stations such as the ISS; scientific satellites like the Hubble; Earth observation satellites from companies like Planet Labs, Umbra, and HawkEye 360; GPS; miniature CubeSats for education and research; and military/defense satellites.

Loading next visibility...
Identifier
62598, 2025-008M
Orbit
LEO
Country
Flag of USUS
Related business
Manufacturer
SpaceX/Seattle
Mission
Operational Commercial Communications
Bus & Motor
STARLINK V2MD, Unknown motor
Mass
960 kg wet, ~910 kg dry
Launch date (UTC)
2025-01-13 (2 years ago)
Launch vehicle
FALCON 9
Launch site
Air Force Eastern Test Range (AFETR)
Object type
Payload
Rocket body
Debris
Shape & HBR
Box + 2 Pan, 18.1 m
Radar Cross Section
36.964 m², Large (>1 m²)

Expand to show TLE details & history
Last TLE update: 14 hours ago

TLE from 14 hours ago
0 STARLINK-11258
1 62598U 25008M   26236.28476301  .00203444  00000-0  15480-2 0  9992
2 62598  43.0011 195.8599 0001392 271.2245  88.8463 15.70878074 93641
Epoch: 2026-08-24T06:50Z
TLE epoch observation values (Epoch: 2026-08-24T06:50:03.524Z)
Latitude
-0.00001°
Longitude
120.77654°
Altitude
356.139 km
Speed
7.697 km/s
True Right ascension
13h 03m 26s
True Declination
0° 00' 00"
Sunlit
Object was in daylight at epoch
Visualization orbit readout
Latitude
Unknown
Longitude
Unknown
Altitude
Unknown
Speed
Unknown
Apparent Right ascension
Unknown
Apparent Declination
Unknown
Sunlit
N/A
Visualization observer readout
Local Sidereal Time
12:11:07
Azimuth
Unknown
Elevation
Unknown
Doppler factor
Unknown
Orbital elements
Apogee altitude
359.305 km
Perigee altitude
357.43 km
Semi-major axis
6,736.505 km
Eccentricity
0.00014
Inclination
43.0011°
RAAN
195.8599°
Arg. of periapsis
271.2245°
True anomaly
88.86225°
Mean anomaly
88.8463°
Eccentric anomaly
88.85427°
Mean motion
3.92547 °/min
Orbital period
91.71 mins
BSTAR
0.001548
Loading maneuver chart data...
Computing Atmospheric mass density...
Loading historical data...
Loading historical data...
Loading historical data...
Loading historical data...
Loading historical data...
Loading historical data...
Loading historical data...

Documentation

Showing up to 5 results
|